Precipitable_Water
1.60 1.45 1.29 1.24 1.21 1.16 1.11 1.05 1.02 1.03 1.07 1.13 1.18 1.19 1.24 1.23 1.23 1.28 1.30 1.30 1.35 1.38 1.42 1.43 1.49 1.58 1.64 1.66 1.61 1.64 1.71 1.52
1.52 1.64 1.38 1.26 1.21 1.16 1.10 1.04 1.00 1.00 1.02 1.11 1.15 1.22 1.22 1.29 1.28 1.25 1.24 1.27 1.31 1.34 1.40 1.42 1.48 1.57 1.66 1.59 1.48 1.53 1.68 1.77
1.37 1.57 1.61 1.37 1.28 1.18 1.09 1.03 0.97 0.98 1.01 1.05 1.13 1.19 1.23 1.19 1.24 1.27 1.25 1.24 1.28 1.32 1.38 1.40 1.48 1.55 1.62 1.58 1.53 1.48 1.60 1.75
1.29 1.46 1.57 1.54 1.35 1.32 1.16 1.08 0.98 0.94 1.02 1.07 1.11 1.14 1.21 1.19 1.18 1.20 1.28 1.23 1.23 1.28 1.29 1.39 1.49 1.52 1.55 1.52 1.46 1.53 1.62 1.89
0.68 1.14 1.52 1.57 1.45 1.27 1.19 1.13 1.06 0.98 1.00 1.11 1.11 1.14 1.19 1.20 1.21 1.16 1.19 1.22 1.21 1.21 1.22 1.27 1.44 1.52 1.52 1.44 1.48 1.53 1.50 1.92
0.47 0.64 0.94 1.55 1.55 1.41 1.26 1.09 1.13 1.08 1.01 1.02 1.15 1.10 1.11 1.19 1.12 1.18 1.14 1.15 1.14 1.17 1.17 1.23 1.40 1.50 1.58 1.48 1.50 1.53 1.57 1.57
0.35 0.43 0.60 0.85 1.39 1.55 1.43 1.24 1.20 1.14 1.20 1.09 1.07 1.10 1.08 1.13 1.15 1.20 1.09 1.13 1.09 1.17 1.18 1.20 1.35 1.49 1.60 1.49 1.45 1.45 1.58 1.63
0.49 0.48 0.52 0.55 0.73 0.99 1.54 1.45 1.29 1.21 1.18 1.23 1.13 1.08 1.09 1.08 1.13 1.19 1.10 1.16 1.17 1.18 1.21 1.24 1.32 1.52 1.48 1.49 1.45 1.49 1.56 1.55
0.57 0.59 0.59 0.57 0.60 0.71 0.86 1.53 1.46 1.30 1.20 1.16 1.22 1.13 1.10 1.11 1.12 1.16 1.13 1.11 1.17 1.23 1.18 1.30 1.35 1.44 1.41 1.44 1.46 1.50 1.51 1.48
0.57 0.55 0.54 0.54 0.57 0.55 0.69 0.81 1.52 1.43 1.32 1.22 1.14 1.15 1.12 1.15 1.12 1.10 1.13 1.14 1.14 1.14 1.09 1.16 1.28 1.37 1.40 1.42 1.37 1.41 1.41 1.46
0.48 0.50 0.51 0.54 0.55 0.58 0.59 0.60 0.81 1.49 1.45 1.32 1.19 1.10 1.14 1.18 1.08 1.11 1.09 1.16 1.11 1.08 1.05 1.11 1.16 1.27 1.36 1.40 1.32 1.35 1.42 1.45
0.44 0.42 0.45 0.48 0.51 0.53 0.60 0.55 0.55 0.87 1.56 1.40 1.34 1.18 1.08 1.15 1.15 1.10 1.12 1.12 1.12 1.08 1.03 1.09 1.13 1.13 1.22 1.26 1.36 1.37 1.37 1.43
0.48 0.46 0.49 0.52 0.49 0.45 0.54 0.59 0.52 0.53 1.01 1.50 1.48 1.33 1.16 1.07 1.15 1.10 1.10 1.06 1.08 1.12 1.05 1.05 1.09 1.16 1.08 1.10 1.18 1.20 1.24 1.32
0.47 0.49 0.52 0.54 0.55 0.56 0.57 0.61 0.62 0.51 0.49 1.08 1.67 1.50 1.27 1.12 1.06 1.09 1.06 1.04 1.07 1.10 1.03 0.99 1.06 1.13 0.96 0.94 0.80 0.92 1.04 1.15
0.48 0.49 0.52 0.57 0.60 0.59 0.57 0.63 0.69 0.56 0.40 0.61 1.06 1.75 1.43 1.24 1.10 1.09 1.08 1.03 1.01 1.04 1.05 0.96 0.90 1.07 1.08 0.91 0.77 0.70 0.85 1.00
0.50 0.50 0.54 0.60 0.66 0.64 0.63 0.60 0.59 0.63 0.50 0.38 0.76 1.11 1.70 1.20 1.17 1.09 1.11 1.07 1.03 1.03 1.08 1.00 0.95 0.89 1.05 1.05 1.00 0.93 0.80 0.82
0.51 0.53 0.60 0.66 0.63 0.63 0.66 0.66 0.71 0.77 0.70 0.42 0.50 0.74 1.45 1.51 1.33 1.11 1.13 1.13 1.05 1.02 1.04 1.02 0.97 0.94 0.92 0.96 1.00 1.00 1.05 0.92
0.52 0.57 0.65 0.64 0.60 0.62 0.64 0.65 0.70 0.79 0.71 0.50 0.53 0.55 1.10 1.73 1.57 1.25 1.25 1.24 1.15 1.04 1.01 1.00 0.99 0.99 0.98 0.98 0.94 0.92 0.92 0.92
0.56 0.62 0.62 0.61 0.61 0.63 0.68 0.71 0.74 0.76 0.76 0.48 0.55 0.70 0.65 1.22 1.51 1.49 1.36 1.33 1.25 1.16 1.04 0.98 0.99 0.97 0.95 0.95 1.00 0.99 1.04 0.98
0.60 0.64 0.62 0.62 0.64 0.58 0.60 0.70 0.79 0.73 0.72 0.52 0.45 1.03 0.74 0.83 1.57 1.59 1.50 1.47 1.40 1.26 1.13 1.02 1.02 1.02 1.01 0.99 1.00 1.05 1.10 1.05
Wind_Speed
16 17 17 17 16 15 14 14 13 12 11 10 10 10 10 10 10 10 10 9 9 8 8 8 8 8 8 8 8 9 8 10
20 20 19 19 19 18 17 16 15 13 12 11 11 11 11 12 12 12 11 10 10 9 9 9 9 8 9 9 9 9 8 8
20 22 22 21 21 21 20 18 17 16 14 13 13 13 13 13 13 13 13 12 11 11 11 10 10 10 10 11 10 9 10 11
20 22 24 24 23 22 22 21 20 18 17 15 15 14 14 14 14 14 14 14 13 12 12 12 12 11 11 11 11 11 11 10
20 21 24 26 26 25 24 24 23 21 20 18 17 16 15 15 14 15 15 15 14 13 13 13 13 12 12 12 11 9 11 6
22 22 21 25 27 28 27 26 25 24 23 22 19 18 17 16 16 15 16 16 15 15 14 13 14 14 13 12 12 10 9 9
23 24 24 25 27 30 30 30 29 28 26 24 23 21 20 19 17 17 16 17 16 16 14 14 14 14 13 13 12 11 10 9
23 24 24 27 29 30 33 33 33 33 31 28 27 25 23 22 20 19 17 17 16 16 16 14 15 15 14 14 13 12 11 10
26 27 29 30 32 34 33 37 37 37 36 35 32 30 26 24 23 22 20 18 18 18 17 16 16 16 16 15 14 13 12 11
30 32 34 35 36 37 38 38 40 42 41 40 38 35 32 28 26 24 22 20 19 18 17 18 17 17 16 16 15 14 14 13
36 37 38 40 41 41 42 44 43 44 46 45 43 41 38 33 30 27 25 22 21 20 20 19 18 17 17 16 16 15 15 14
41 43 44 45 45 47 46 48 48 47 46 50 48 46 43 39 35 31 28 26 24 22 21 20 20 19 17 15 15 14 15 15
44 46 47 48 50 50 51 49 52 54 52 50 53 52 49 45 40 36 33 29 27 25 23 21 20 20 16 15 16 16 15 15
47 49 51 51 51 52 54 55 55 56 57 57 52 56 54 50 46 41 38 33 31 29 27 24 23 22 18 16 15 16 17 16
50 52 53 52 51 51 52 54 55 59 59 61 62 55 59 56 51 47 42 38 35 32 31 29 25 25 22 18 14 15 14 17
53 54 53 50 48 49 50 54 55 53 59 63 65 67 69 65 57 52 47 43 39 35 34 31 29 26 25 24 19 15 13 12
52 51 48 45 44 44 45 48 51 54 51 60 68 70 63 65 60 55 51 47 43 39 37 35 32 29 28 26 24 21 17 14
48 45 44 41 41 44 47 50 51 51 50 46 61 70 65 47 58 56 54 50 46 42 39 38 35 32 30 29 27 25 21 19
44 45 42 43 44 44 43 46 49 53 51 48 48 63 66 62 59 60 58 53 48 44 41 39 37 34 32 31 30 28 26 24
45 42 40 41 40 38 36 37 39 46 50 48 48 54 63 66 61 58 59 52 47 45 42 40 38 36 33 31 30 29 27 26
Wind_Direction
265 261 257 258 261 264 267 271 273 276 273 269 261 255 251 246 245 247 249 252 254 254 251 249 248 247 241 238 244 243 250 201
266 260 259 259 260 262 264 265 266 267 267 264 259 253 251 250 248 249 249 251 254 252 251 250 248 244 234 236 249 239 235 219
270 262 258 258 259 260 261 261 260 261 260 259 256 254 252 252 250 250 249 250 253 252 251 251 246 242 234 236 243 239 237 215
272 266 260 257 259 257 259 259 257 256 257 256 254 252 252 252 252 250 249 250 251 252 252 251 245 240 233 236 237 247 252 208
277 273 263 258 257 257 258 257 256 254 252 252 253 251 251 251 251 250 250 249 250 250 252 252 245 235 230 232 233 245 214 228
278 274 272 262 257 257 256 256 253 253 251 249 250 250 249 250 251 251 251 248 248 249 251 248 240 232 229 229 229 240 244 239
282 275 270 268 263 257 255 254 251 251 250 248 246 249 249 248 250 248 252 246 247 245 246 244 237 232 227 228 230 239 242 235
283 280 276 269 266 263 257 254 251 250 248 247 246 246 248 248 247 248 249 245 246 241 241 240 235 231 231 230 230 235 237 235
288 284 280 276 272 265 262 255 252 250 248 246 246 244 245 245 245 245 246 245 244 237 239 238 235 231 232 233 233 235 239 235
293 288 285 280 274 269 262 258 254 250 248 245 243 243 242 244 244 244 243 241 239 237 236 233 233 231 233 232 235 240 241 238
294 291 286 282 277 271 265 258 255 252 247 245 242 241 239 241 241 242 240 239 237 237 235 231 231 229 232 234 236 241 243 239
295 293 289 283 277 272 267 260 255 252 248 244 242 239 237 237 238 239 237 237 235 234 231 229 230 228 231 231 236 240 243 243
298 295 291 287 280 273 266 263 255 251 248 246 240 237 235 234 235 234 234 234 233 230 229 226 226 225 227 233 238 242 245 244
302 299 295 290 283 275 267 261 257 251 247 243 242 235 232 232 231 231 231 232 232 229 227 227 227 225 229 230 239 243 244 243
306 303 299 293 285 277 269 263 258 251 245 242 238 238 229 229 229 228 229 229 229 228 226 225 227 226 226 232 237 244 242 244
308 305 301 293 287 279 271 263 257 254 246 242 237 234 232 220 224 226 226 227 227 226 226 226 226 228 228 232 238 240 240 244
311 308 304 296 288 282 273 266 257 252 250 240 235 234 237 223 221 221 224 224 225 224 224 225 227 229 230 232 235 240 244 246
314 311 308 302 294 287 277 267 259 250 243 241 234 231 231 228 219 221 221 221 222 223 223 224 227 229 230 232 235 238 242 245
319 315 311 307 301 293 281 269 259 243 240 237 237 229 228 228 224 218 218 218 218 221 222 223 225 228 230 233 236 239 241 244
324 319 317 315 310 301 290 274 260 238 234 234 233 228 224 223 230 214 212 214 217 218 221 222 222 226 228 231 235 237 240 242